• In Hungary
  • List of Countries
  • For 7 days
  • Water Temperature
  • Satellite Maps
  • Weather Map
  • News
  • Weather Widgets
  • user-avatar
    Login

    Hourly Weather Klotyldzin

    Today, 18 November, Saturday

    Time Temperature Precipitation Wind Pressure Humidity
    00:00 +1°C° 0 mm 3 mps 757 mmHg 92%
    01:00 +1°C° 0 mm 3 mps 757 mmHg 92%
    02:00 +1°C° 0 mm 3 mps 756 mmHg 92%
    03:00 0°C° 0 mm 3 mps 756 mmHg 92%
    04:00 0°C° 0 mm 3 mps 755 mmHg 92%
    05:00 0°C° 0 mm 3 mps 755 mmHg 92%
    06:00 -1°C° 0 mm 4 mps 755 mmHg 92%
    07:00 0°C° 0 mm 3 mps 754 mmHg 93%
    08:00 -1°C° 0 mm 4 mps 754 mmHg 89%
    09:00 0°C° 0 mm 5 mps 753 mmHg 85%
    10:00 +1°C° 0 mm 6 mps 753 mmHg 80%
    11:00 +2°C° 0 mm 6 mps 752 mmHg 75%
    12:00 +3°C° 0 mm 7 mps 751 mmHg 69%
    13:00 +3°C° 0 mm 6 mps 750 mmHg 64%
    14:00 +3°C° 0 mm 6 mps 749 mmHg 66%
    15:00 +3°C° 0 mm 6 mps 749 mmHg 67%
    16:00 +2°C° 0 mm 6 mps 748 mmHg 68%
    17:00 +2°C° 0.2 mm 7 mps 747 mmHg 70%
    18:00 +2°C° 0.2 mm 7 mps 747 mmHg 72%
    19:00 +2°C° 0.2 mm 7 mps 746 mmHg 73%
    20:00 +2°C° 0.2 mm 7 mps 746 mmHg 76%
    21:00 +2°C° 0.2 mm 6 mps 746 mmHg 78%
    22:00 +2°C° 0.2 mm 6 mps 745 mmHg 81%
    23:00 +1°C° 0 mm 5 mps 745 mmHg 83%

    Tomorrow, 19 November, Sunday

    Time Temperature Precipitation Wind Pressure Humidity
    00:00 +1°C° 0 mm 5 mps 745 mmHg 85%
    01:00 0°C° 0 mm 5 mps 745 mmHg 87%
    02:00 0°C° 0 mm 5 mps 745 mmHg 87%
    03:00 0°C° 0 mm 5 mps 744 mmHg 87%
    04:00 0°C° 0 mm 5 mps 744 mmHg 88%
    05:00 0°C° 0 mm 5 mps 744 mmHg 87%
    06:00 -1°C° 0 mm 6 mps 744 mmHg 86%
    07:00 +1°C° 0 mm 6 mps 744 mmHg 85%
    08:00 +1°C° 0 mm 6 mps 743 mmHg 83%
    09:00 +1°C° 0 mm 6 mps 743 mmHg 82%
    10:00 +2°C° 0 mm 7 mps 743 mmHg 80%
    11:00 +2°C° 0.3 mm 7 mps 743 mmHg 79%
    12:00 +2°C° 0.3 mm 7 mps 743 mmHg 79%
    13:00 +2°C° 0.3 mm 7 mps 742 mmHg 78%
    14:00 +2°C° 0.4 mm 6 mps 742 mmHg 78%
    15:00 +3°C° 0.4 mm 6 mps 742 mmHg 79%
    16:00 +3°C° 0.4 mm 5 mps 742 mmHg 79%
    17:00 +2°C° 0.1 mm 5 mps 742 mmHg 78%
    18:00 +2°C° 0.1 mm 5 mps 742 mmHg 77%
    19:00 +1°C° 0.1 mm 5 mps 742 mmHg 76%
    20:00 +1°C° 0.1 mm 6 mps 742 mmHg 76%
    21:00 +1°C° 0.1 mm 6 mps 743 mmHg 77%
    22:00 +1°C° 0.1 mm 6 mps 743 mmHg 78%
    23:00 0°C° 0.3 mm 7 mps 744 mmHg 79%

    Day after tomorrow, 20 November, Monday

    Time Temperature Precipitation Wind Pressure Humidity
    00:00 +2°C° 0.3 mm 7 mps 744 mmHg 81%
    01:00 +2°C° 0.3 mm 7 mps 744 mmHg 82%
    02:00 +2°C° 0.3 mm 7 mps 745 mmHg 81%
    03:00 +2°C° 0.3 mm 7 mps 745 mmHg 80%
    04:00 +2°C° 0.3 mm 7 mps 746 mmHg 79%
    05:00 +2°C° 0.1 mm 7 mps 747 mmHg 80%
    06:00 +1°C° 0.1 mm 6 mps 747 mmHg 81%
    07:00 +1°C° 0.1 mm 6 mps 748 mmHg 81%
    08:00 +1°C° 0 mm 6 mps 749 mmHg 79%
    09:00 +1°C° 0 mm 6 mps 749 mmHg 77%
    10:00 +2°C° 0 mm 5 mps 750 mmHg 74%
    11:00 +2°C° 0 mm 5 mps 750 mmHg 72%
    12:00 +2°C° 0 mm 5 mps 750 mmHg 71%
    13:00 +3°C° 0 mm 5 mps 750 mmHg 69%
    14:00 +3°C° 0 mm 4 mps 750 mmHg 73%
    15:00 +3°C° 0 mm 3 mps 750 mmHg 78%
    16:00 +3°C° 0 mm 2 mps 750 mmHg 82%
    17:00 +3°C° 0 mm 2 mps 750 mmHg 85%
    18:00 +2°C° 0 mm 2 mps 750 mmHg 88%
    19:00 +2°C° 0 mm 2 mps 749 mmHg 91%
    20:00 +2°C° 0.1 mm 2 mps 749 mmHg 92%
    21:00 +2°C° 0.1 mm 2 mps 749 mmHg 93%
    22:00 +2°C° 0.1 mm 2 mps 748 mmHg 94%
    23:00 +2°C° 0.3 mm 2 mps 748 mmHg 94%

    21 November, Tuesday

    Time Temperature Precipitation Wind Pressure Humidity
    00:00 +2°C° 0.3 mm 2 mps 747 mmHg 94%
    01:00 +2°C° 0.3 mm 2 mps 747 mmHg 94%
    02:00 +2°C° 0.3 mm 2 mps 746 mmHg 94%
    03:00 +2°C° 0.3 mm 2 mps 746 mmHg 94%
    04:00 +2°C° 0.3 mm 2 mps 746 mmHg 94%
    05:00 +2°C° 0 mm 2 mps 746 mmHg 95%
    06:00 +2°C° 0 mm 2 mps 746 mmHg 95%
    07:00 +2°C° 0 mm 2 mps 746 mmHg 96%
    08:00 +2°C° 0 mm 2 mps 746 mmHg 93%
    09:00 +3°C° 0 mm 2 mps 747 mmHg 91%
    10:00 +3°C° 0 mm 2 mps 747 mmHg 88%
    11:00 +5°C° 0 mm 1 mps 748 mmHg 85%
    12:00 +5°C° 0 mm 1 mps 748 mmHg 81%
    13:00 +6°C° 0 mm 1 mps 748 mmHg 77%
    14:00 +5°C° 0 mm 1 mps 749 mmHg 81%
    15:00 +4°C° 0 mm 1 mps 749 mmHg 84%
    16:00 +4°C° 0 mm 1 mps 749 mmHg 88%
    17:00 +3°C° 0 mm 1 mps 750 mmHg 89%
    18:00 +2°C° 0 mm 0 mps 750 mmHg 90%
    19:00 +2°C° 0 mm 0 mps 751 mmHg 91%
    20:00 +2°C° 0 mm 0 mps 751 mmHg 91%
    21:00 +3°C° 0 mm 1 mps 751 mmHg 91%
    22:00 +3°C° 0 mm 1 mps 751 mmHg 91%
    23:00 +3°C° 0 mm 1 mps 751 mmHg 92%

    22 November, Wednesday

    Time Temperature Precipitation Wind Pressure Humidity
    00:00 +2°C° 0 mm 1 mps 751 mmHg 92%
    01:00 +1°C° 0 mm 2 mps 751 mmHg 93%
    02:00 +2°C° 0.1 mm 2 mps 751 mmHg 93%
    03:00 +2°C° 0.1 mm 2 mps 751 mmHg 92%
    04:00 +2°C° 0.1 mm 2 mps 750 mmHg 91%
    05:00 +1°C° 0.2 mm 3 mps 750 mmHg 91%
    06:00 +1°C° 0.2 mm 3 mps 750 mmHg 91%
    07:00 +1°C° 0.2 mm 4 mps 750 mmHg 91%
    08:00 +1°C° 0 mm 4 mps 750 mmHg 91%
    09:00 +3°C° 0 mm 4 mps 749 mmHg 91%
    10:00 +3°C° 0 mm 4 mps 749 mmHg 91%
    11:00 +4°C° 0 mm 4 mps 749 mmHg 91%
    12:00 +5°C° 0 mm 4 mps 749 mmHg 90%
    13:00 +6°C° 0 mm 4 mps 749 mmHg 89%
    14:00 +6°C° 0.1 mm 4 mps 749 mmHg 90%
    15:00 +6°C° 0.1 mm 4 mps 749 mmHg 91%
    16:00 +6°C° 0.1 mm 4 mps 749 mmHg 92%
    17:00 +6°C° 0.3 mm 4 mps 749 mmHg 92%
    18:00 +6°C° 0.3 mm 5 mps 749 mmHg 92%
    19:00 +6°C° 0.3 mm 5 mps 749 mmHg 92%
    20:00 +6°C° 0 mm 5 mps 749 mmHg 92%
    21:00 +6°C° 0 mm 4 mps 750 mmHg 93%
    22:00 +6°C° 0 mm 4 mps 750 mmHg 93%
    23:00 +6°C° 0 mm 4 mps 750 mmHg 93%

    23 November, Thursday

    Time Temperature Precipitation Wind Pressure Humidity
    00:00 +5°C° 0 mm 4 mps 750 mmHg 94%
    01:00 +5°C° 0 mm 4 mps 750 mmHg 94%
    02:00 +4°C° 0 mm 3 mps 751 mmHg 94%
    03:00 +4°C° 0 mm 3 mps 751 mmHg 95%
    04:00 +4°C° 0 mm 3 mps 751 mmHg 95%
    05:00 +3°C° 0 mm 3 mps 751 mmHg 94%
    06:00 +3°C° 0 mm 3 mps 751 mmHg 93%
    07:00 +3°C° 0 mm 3 mps 751 mmHg 92%
    08:00 +4°C° 0 mm 3 mps 751 mmHg 86%
    09:00 +5°C° 0 mm 4 mps 752 mmHg 80%
    10:00 +6°C° 0 mm 4 mps 752 mmHg 74%
    11:00 +7°C° 0 mm 4 mps 752 mmHg 70%
    12:00 +7°C° 0 mm 4 mps 751 mmHg 66%
    13:00 +8°C° 0 mm 4 mps 751 mmHg 62%
    14:00 +8°C° 0 mm 4 mps 751 mmHg 65%
    15:00 +7°C° 0 mm 4 mps 751 mmHg 68%
    16:00 +7°C° 0 mm 4 mps 751 mmHg 71%
    17:00 +7°C° 0 mm 4 mps 751 mmHg 71%
    18:00 +6°C° 0 mm 4 mps 752 mmHg 71%
    19:00 +6°C° 0 mm 4 mps 752 mmHg 71%
    20:00 +6°C° 0 mm 4 mps 752 mmHg 74%
    21:00 +6°C° 0 mm 4 mps 753 mmHg 76%
    22:00 +6°C° 0 mm 4 mps 753 mmHg 79%
    23:00 +6°C° 0 mm 4 mps 753 mmHg 81%
    Show more